Regional Weather Roundup
Issued by NWS Newport/Morehead, NC

Current Version | Previous Version | Graphics & Text | Print | Product List | Glossary Off
Versions: 1 2 3 4 5 6 7 8 9 10 11 12 13 14 15 16 17 18 19 20 21 22 23 24 25 26 27 28 29 30 31 32 33 34 35 36 37 38 39 40 41 42 43 44 45 46 47 48 49 50

000
ASUS42 KMHX 030613
RWRMHX
WEATHER ROUNDUP FOR EASTERN NORTH CAROLINA
NATIONAL WEATHER SERVICE NEWPORT/MOREHEAD CITY NC
100 AM EST SAT DEC 03 2016

NOTE: "FAIR" INDICATES FEW OR NO CLOUDS BELOW 12,000 FEET
WITH NO SIGNIFICANT WEATHER AND/OR OBSTRUCTIONS TO VISIBILITY

NCZ015>017-031-032-045>047-102-103-030700-
NORTH COAST

CITY           SKY/WX    TMP DP  RH WIND       PRES   REMARKS
EDENTON        PTCLDY    46  34  62 N10       30.17R
ELIZABETH CITY PTCLDY    42  33  70 NW10      30.15R
KITTY HAWK     MOCLDY    47  38  69 NW8       30.11R
MANTEO         CLOUDY    47  35  63 N12       30.13R

$$

NCZ045>047-081-094-103-104-030700-
CENTRAL COAST

CITY           SKY/WX    TMP DP  RH WIND       PRES   REMARKS
FRISCO         CLEAR     52  37  56 NW12G22   30.11F

$$

NCZ095-097-098-100-101-030700-
SOUTHERN COAST

CITY           SKY/WX    TMP DP  RH WIND       PRES   REMARKS
BEAUFORT       CLEAR     49  37  63 W7        30.13F
CEDAR ISLAND   NOT AVBL
JACKSONVILLE   PTCLDY    41  36  82 NW7       30.15S
PINEY ISLAND   CLEAR    N/A N/A N/A NW15G23   30.13F
WILMINGTON     CLOUDY    40  40 100 W5        30.16F


$$

NCZ011>013-027>030-043-044-078>080-089-090>093-098-030700-
COASTAL PLAIN

CITY           SKY/WX    TMP DP  RH WIND       PRES   REMARKS
AHOSKIE        PTCLDY    40  31  69 CALM      30.18R
CLINTON        NOT AVBL
ELIZABETHTOWN  PTCLDY    43  37  77 W3        30.17S
GOLDSBORO      PTCLDY    43  34  69 NW3       30.16S
GREENVILLE     PTCLDY    43  34  70 CALM      30.18S
HAVELOCK       CLEAR     43  34  70 NW6       30.16S
KENANSVILLE    CLEAR     39  34  81 NW5       30.17S
KINSTON          N/A     42  34  73 NW5       30.18S
NEW BERN       CLEAR     43  34  70 NW7       30.16S
RICHLANDS      PTCLDY    37  34  89 CALM      30.16F
ROCKY MOUNT    NOT AVBL
WASHINGTON     PTCLDY    42  32  68 NW5       30.17S
WHITEVILLE     PTCLDY    41  38  87 CALM      30.17R

$$

AMZ130-135-150-152-154-156-158-170-250-252-270-ANZ085-086-088-633-658-670-030700-
MARINE OBSERVATIONS

STATION/POSITION TIME  TEMP    WIND        PRES    WAVE   SWELL
                       AIR SEA DIR/SP/G            HT/PER HT/PER
                 (UTC) (F)     (DEG/KT/KT) (MB)    (FT/S) (FT/S)
CHESAPEAKE LIGHT NOT AVBL
64 E VA BEACH    0550   49 60  350/ 23/ 27 1018.3    4/ 5
DUCK             0548   47 57  320/ 13/ 16 1019.3
2 E DUCK         NOT AVBL
OREGON INLET     0536   49 57  290/ 11/ 14 1019.4
13E OREGON INLT  0600      60                N/A     4/ 4   2/ 6
HATTERAS CG      0548   53 61  310/ 17/ 19 1019.4
DIAMOND BUOY     0550   57 75  310/ 21/ 27 1018.9    4/ 4   2/ 9
CAPE LOOKOUT     0600   54     300/ 16/ 20 1019.7
BEAUFORT LAB     0548   49 58  300/ 10/ 14 1019.2
30 SE NEW RVR IN 0508   59 71  320/ 17/ 23 1020.9
30 SE NEW RVR IN NOT AVBL
27 SE WRIGHTSVLE 0508   58 69  280/ 16/ 23 1020.7
5 SE WRIGHTSVLE  0508   51 63  290/ 14/ 19 1020.7
225 S CAPE HAT   0550   66 74  330/ 14/ 17 1018.9    4/ 6   2/ 8
41 SE CHARLESTON 0550   61 74  330/ 14/ 16 1022.0    3/ 9   2/ 9

$$




USA.gov is the U.S. government's official web portal to all federal, state and local government web resources and services.